カタログに戻る

COSMOS 2251 DEB

運用中LEO
NORAD 33841·DEBRIS·🇷🇺 Russia

打ち上げ Jun 16, 1993 から Plesetsk Cosmodrome

Loading…

次のパス (今後24時間)

TLE

最新Source: Space-Track

元期: Sep 14, 2026, 09:16 UTC

1 33841U 93036CJ  26257.38661686  .00000308  00000-0  11005-3 0  9997
2 33841  74.0369 130.3886 0020379 149.9366  25.1872 14.38164089920761

AllMySatでCOSMOS 2251 DEBをリアルタイム追跡

Download on the App Store